Time,TemperatureF,DewpointF,PressureIn,WindDirection,WindDirectionDegrees,WindSpeedMPH,WindSpeedGustMPH,Humidity,HourlyPrecipIn,Conditions,Clouds,dailyrainin,SoftwareType,DateUTC
2013-09-19 00:03:00,71.3,56.2,29.98,SSE,168,10.4,10.4,59,0.00,CLR,,0.00,WeatherDisplay:10.37,2013-09-19 05:03:00,
2013-09-19 00:08:00,71.3,56.2,29.98,SSW,209,11.5,11.5,59,0.00,CLR,,0.00,WeatherDisplay:10.37,2013-09-19 05:08:00,
2013-09-19 00:13:00,71.3,56.2,29.98,South,180,10.4,10.4,59,0.00,CLR,,0.00,WeatherDisplay:10.37,2013-09-19 05:13:00,
2013-09-19 00:18:00,71.3,56.2,29.97,SSE,165,11.5,11.5,59,0.00,CLR,,0.00,WeatherDisplay:10.37,2013-09-19 05:18:00,
2013-09-19 00:23:00,71.4,56.3,29.97,South,184,6.9,6.9,59,0.00,CLR,,0.00,WeatherDisplay:10.37,2013-09-19 05:23:00,
2013-09-19 00:28:00,71.3,56.2,29.97,South,183,10.0,10.0,59,0.00,CLR,,0.00,WeatherDisplay:10.37,2013-09-19 05:28:00,
2013-09-19 00:33:00,71.3,56.2,29.97,SSE,165,10.4,10.4,59,0.00,CLR,,0.00,WeatherDisplay:10.37,2013-09-19 05:33:00,
2013-09-19 00:38:00,71.3,56.2,29.97,South,175,11.5,11.5,59,0.00,CLR,,0.00,WeatherDisplay:10.37,2013-09-19 05:38:00,
2013-09-19 00:43:00,71.3,56.2,29.97,SE,138,5.8,5.8,59,0.00,CLR,,0.00,WeatherDisplay:10.37,2013-09-19 05:43:00,
2013-09-19 00:48:00,71.3,56.2,29.97,South,178,4.6,4.6,59,0.00,CLR,,0.00,WeatherDisplay:10.37,2013-09-19 05:48:00,
2013-09-19 00:53:00,71.3,56.2,29.98,WSW,250,6.0,6.0,59,0.00,CLR,,0.00,WeatherDisplay:10.37,2013-09-19 05:53:00,
2013-09-19 00:58:00,71.3,55.8,29.98,SSW,195,6.9,6.9,58,0.00,CLR,,0.00,WeatherDisplay:10.37,2013-09-19 05:58:00,
2013-09-19 01:03:00,71.3,55.8,29.98,SSW,204,4.6,4.6,58,0.00,CLR,,0.00,WeatherDisplay:10.37,2013-09-19 06:03:00,
2013-09-19 01:08:00,71.3,55.8,29.98,SSW,195,8.1,8.1,58,0.00,CLR,,0.00,WeatherDisplay:10.37,2013-09-19 06:08:00,
2013-09-19 01:13:00,71.3,55.8,29.98,SSE,167,5.8,5.8,58,0.00,CLR,,0.00,WeatherDisplay:10.37,2013-09-19 06:13:00,
2013-09-19 01:18:00,71.3,55.8,29.98,SSW,194,5.0,5.0,58,0.00,CLR,,0.00,WeatherDisplay:10.37,2013-09-19 06:18:00,
2013-09-19 01:23:00,71.3,55.8,29.99,SSW,203,4.6,4.6,58,0.00,CLR,,0.00,WeatherDisplay:10.37,2013-09-19 06:23:00,
2013-09-19 01:29:00,71.3,55.8,29.99,SSW,196,6.9,6.9,58,0.00,CLR,,0.00,WeatherDisplay:10.37,2013-09-19 06:29:00,
2013-09-19 01:34:00,71.2,55.7,29.98,South,186,3.5,3.5,58,0.00,CLR,,0.00,WeatherDisplay:10.37,2013-09-19 06:34:00,
2013-09-19 01:39:00,71.2,55.7,29.98,SSE,165,9.2,9.2,58,0.00,CLR,,0.00,WeatherDisplay:10.37,2013-09-19 06:39:00,
2013-09-19 01:44:00,71.2,55.7,29.98,South,188,4.6,4.6,58,0.00,CLR,,0.00,WeatherDisplay:10.37,2013-09-19 06:44:00,
2013-09-19 01:49:00,71.2,55.7,29.98,South,189,3.5,3.5,58,0.00,CLR,,0.00,WeatherDisplay:10.37,2013-09-19 06:49:00,
2013-09-19 01:54:00,71.2,55.7,29.98,South,176,3.5,3.5,58,0.00,CLR,,0.00,WeatherDisplay:10.37,2013-09-19 06:54:00,
2013-09-19 01:59:00,71.2,55.7,29.98,South,182,6.9,6.9,58,0.00,CLR,,0.00,WeatherDisplay:10.37,2013-09-19 06:59:00,
2013-09-19 02:04:00,71.2,55.7,29.98,SSW,203,6.9,6.9,58,0.00,CLR,,0.00,WeatherDisplay:10.37,2013-09-19 07:04:00,
2013-09-19 02:09:00,71.2,55.7,29.97,SSE,168,3.5,3.5,58,0.00,CLR,,0.00,WeatherDisplay:10.37,2013-09-19 07:09:00,
2013-09-19 02:14:00,71.3,55.8,29.97,SW,229,6.0,6.0,58,0.00,CLR,,0.00,WeatherDisplay:10.37,2013-09-19 07:14:00,
2013-09-19 02:19:00,71.3,55.8,29.97,SSE,155,8.1,8.1,58,0.00,CLR,,0.00,WeatherDisplay:10.37,2013-09-19 07:19:00,
2013-09-19 02:24:00,71.3,55.3,29.97,SSW,195,5.8,5.8,57,0.00,CLR,,0.00,WeatherDisplay:10.37,2013-09-19 07:24:00,
2013-09-19 02:29:00,71.3,55.3,29.97,South,191,6.9,6.9,57,0.00,CLR,,0.00,WeatherDisplay:10.37,2013-09-19 07:29:00,
2013-09-19 02:34:00,71.3,55.3,29.97,SW,216,4.6,4.6,57,0.00,CLR,,0.00,WeatherDisplay:10.37,2013-09-19 07:34:00,
2013-09-19 02:39:00,71.3,55.3,29.97,SSW,196,5.8,5.8,57,0.00,CLR,,0.00,WeatherDisplay:10.37,2013-09-19 07:39:00,
2013-09-19 02:44:00,71.3,55.3,29.97,South,171,6.9,6.9,57,0.00,CLR,,0.00,WeatherDisplay:10.37,2013-09-19 07:44:00,
2013-09-19 02:49:00,71.3,55.3,29.97,SSW,196,11.5,11.5,57,0.00,CLR,,0.00,WeatherDisplay:10.37,2013-09-19 07:49:00,
2013-09-19 02:54:00,71.3,55.3,29.97,South,184,3.5,3.5,57,0.00,CLR,,0.00,WeatherDisplay:10.37,2013-09-19 07:54:00,
2013-09-19 02:59:00,71.3,55.3,29.97,SW,218,7.0,7.0,57,0.00,CLR,,0.00,WeatherDisplay:10.37,2013-09-19 07:59:00,
2013-09-19 03:04:00,71.3,55.3,29.97,SW,218,5.8,5.8,57,0.00,CLR,,0.00,WeatherDisplay:10.37,2013-09-19 08:04:00,
2013-09-19 03:09:00,71.3,55.3,29.98,SW,226,6.9,6.9,57,0.00,CLR,,0.00,WeatherDisplay:10.37,2013-09-19 08:09:00,
2013-09-19 03:14:00,71.3,55.3,29.98,SW,227,4.6,4.6,57,0.00,CLR,,0.00,WeatherDisplay:10.37,2013-09-19 08:14:00,
2013-09-19 03:19:00,71.4,55.4,29.98,SSW,201,4.6,4.6,57,0.00,CLR,,0.00,WeatherDisplay:10.37,2013-09-19 08:19:00,
2013-09-19 03:24:00,71.4,55.4,29.98,SSW,210,3.5,3.5,57,0.00,CLR,,0.00,WeatherDisplay:10.37,2013-09-19 08:24:00,
2013-09-19 03:29:00,71.4,55.4,29.98,SSW,210,0.0,0.0,57,0.00,CLR,,0.00,WeatherDisplay:10.37,2013-09-19 08:29:00,
2013-09-19 03:34:00,71.3,55.3,29.98,SSW,210,1.0,0.0,57,0.00,CLR,,0.00,WeatherDisplay:10.37,2013-09-19 08:34:00,
2013-09-19 03:39:00,71.3,55.3,29.98,SSW,210,0.0,0.0,57,0.00,CLR,,0.00,WeatherDisplay:10.37,2013-09-19 08:39:00,
2013-09-19 03:44:00,71.4,55.4,29.98,SSW,210,0.0,0.0,57,0.00,CLR,,0.00,WeatherDisplay:10.37,2013-09-19 08:44:00,
2013-09-19 03:49:00,71.3,55.3,29.98,SSW,210,0.0,0.0,57,0.00,CLR,,0.00,WeatherDisplay:10.37,2013-09-19 08:49:00,
2013-09-19 03:54:00,71.3,55.3,29.99,SSW,210,0.0,0.0,57,0.00,CLR,,0.00,WeatherDisplay:10.37,2013-09-19 08:54:00,
2013-09-19 03:59:00,71.3,55.3,29.98,SSW,210,0.0,0.0,57,0.00,CLR,,0.00,WeatherDisplay:10.37,2013-09-19 08:59:00,
2013-09-19 04:04:00,71.3,55.3,29.98,SSW,210,0.0,0.0,57,0.00,CLR,,0.00,WeatherDisplay:10.37,2013-09-19 09:04:00,
2013-09-19 04:09:00,71.3,55.3,29.98,SSW,210,0.0,0.0,57,0.00,CLR,,0.00,WeatherDisplay:10.37,2013-09-19 09:09:00,
2013-09-19 04:14:00,71.3,55.3,29.98,SSW,210,0.0,0.0,57,0.00,CLR,,0.00,WeatherDisplay:10.37,2013-09-19 09:14:00,
2013-09-19 04:19:00,71.3,55.3,29.98,SSW,210,0.0,0.0,57,0.00,CLR,,0.00,WeatherDisplay:10.37,2013-09-19 09:19:00,
2013-09-19 04:24:00,71.3,55.3,29.98,SSW,211,0.0,0.0,57,0.00,CLR,,0.00,WeatherDisplay:10.37,2013-09-19 09:24:00,
2013-09-19 04:29:00,71.3,55.3,29.98,SSW,210,0.0,0.0,57,0.00,CLR,,0.00,WeatherDisplay:10.37,2013-09-19 09:29:00,
2013-09-19 04:34:00,71.2,55.2,29.98,SSW,210,0.0,0.0,57,0.00,CLR,,0.00,WeatherDisplay:10.37,2013-09-19 09:34:00,
2013-09-19 04:39:00,71.0,55.0,29.98,SSW,210,0.0,0.0,57,0.00,CLR,,0.00,WeatherDisplay:10.37,2013-09-19 09:39:00,
2013-09-19 04:44:00,71.0,55.0,29.98,ESE,115,0.0,0.0,57,0.00,CLR,,0.00,WeatherDisplay:10.37,2013-09-19 09:44:00,
2013-09-19 04:49:00,71.0,55.0,29.98,ESE,115,0.0,0.0,57,0.00,CLR,,0.00,WeatherDisplay:10.37,2013-09-19 09:49:00,
2013-09-19 04:54:00,71.0,55.0,29.98,ESE,115,0.0,0.0,57,0.00,CLR,,0.00,WeatherDisplay:10.37,2013-09-19 09:54:00,
2013-09-19 04:59:00,70.9,54.9,29.98,East,84,3.5,3.5,57,0.00,CLR,,0.00,WeatherDisplay:10.37,2013-09-19 09:59:00,
2013-09-19 05:04:00,70.9,54.9,29.98,East,84,0.0,0.0,57,0.00,CLR,,0.00,WeatherDisplay:10.37,2013-09-19 10:04:00,
2013-09-19 05:09:00,71.0,54.5,29.97,SE,144,3.5,3.5,56,0.00,CLR,,0.00,WeatherDisplay:10.37,2013-09-19 10:09:00,
2013-09-19 05:14:00,71.0,54.5,29.98,SE,141,1.2,0.0,56,0.00,CLR,,0.00,WeatherDisplay:10.37,2013-09-19 10:14:00,
2013-09-19 05:19:00,71.2,54.7,29.99,SW,215,5.8,5.8,56,0.00,CLR,,0.00,WeatherDisplay:10.37,2013-09-19 10:19:00,
2013-09-19 05:24:00,71.3,54.8,29.98,SW,214,0.0,0.0,56,0.00,CLR,,0.00,WeatherDisplay:10.37,2013-09-19 10:24:00,
2013-09-19 05:29:00,71.2,54.7,29.97,SSE,153,4.0,4.0,56,0.00,CLR,,0.00,WeatherDisplay:10.37,2013-09-19 10:29:00,
2013-09-19 05:34:00,71.2,54.7,29.97,SSE,167,3.5,3.5,56,0.00,CLR,,0.00,WeatherDisplay:10.37,2013-09-19 10:34:00,
2013-09-19 05:39:00,71.3,54.8,29.97,SSE,164,4.6,4.6,56,0.00,CLR,,0.00,WeatherDisplay:10.37,2013-09-19 10:39:00,
2013-09-19 05:44:00,71.4,54.9,29.98,East,94,3.5,3.5,56,0.00,CLR,,0.00,WeatherDisplay:10.37,2013-09-19 10:44:00,
2013-09-19 05:49:00,71.4,54.9,29.98,East,95,3.5,0.0,56,0.00,CLR,,0.00,WeatherDisplay:10.37,2013-09-19 10:49:00,
2013-09-19 05:54:00,71.4,54.9,29.98,ESE,106,3.5,3.5,56,0.00,CLR,,0.00,WeatherDisplay:10.37,2013-09-19 10:54:00,
2013-09-19 05:59:00,71.4,54.9,29.98,ESE,113,0.0,0.0,56,0.00,CLR,,0.00,WeatherDisplay:10.37,2013-09-19 10:59:00,
2013-09-19 06:04:00,71.4,54.9,29.98,ESE,112,1.2,0.0,56,0.00,CLR,,0.00,WeatherDisplay:10.37,2013-09-19 11:04:00,
2013-09-19 06:09:00,71.4,54.9,29.99,ESE,111,0.0,0.1,56,0.00,CLR,,0.00,WeatherDisplay:10.37,2013-09-19 11:09:00,
2013-09-19 06:14:00,71.3,54.8,29.99,ESE,102,0.0,0.0,56,0.00,CLR,,0.00,WeatherDisplay:10.37,2013-09-19 11:14:00,
2013-09-19 06:19:00,71.3,54.8,29.99,ESE,102,0.0,0.0,56,0.00,CLR,,0.00,WeatherDisplay:10.37,2013-09-19 11:19:00,
2013-09-19 06:24:00,71.3,54.8,30.00,ESE,102,0.0,0.0,56,0.00,CLR,,0.00,WeatherDisplay:10.37,2013-09-19 11:24:00,
2013-09-19 06:29:00,71.3,54.8,30.00,ESE,102,2.3,2.3,56,0.00,CLR,,0.00,WeatherDisplay:10.37,2013-09-19 11:29:00,
2013-09-19 06:34:00,71.2,54.7,30.00,East,93,3.5,3.5,56,0.00,CLR,,0.00,WeatherDisplay:10.37,2013-09-19 11:34:00,
2013-09-19 06:39:00,71.1,54.6,30.00,East,98,3.5,0.0,56,0.00,CLR,,0.00,WeatherDisplay:10.37,2013-09-19 11:39:00,
2013-09-19 06:44:00,71.1,54.6,30.00,East,88,1.2,0.0,56,0.00,CLR,,0.00,WeatherDisplay:10.37,2013-09-19 11:44:00,
2013-09-19 06:49:00,71.0,54.5,30.00,ESE,122,3.5,3.5,56,0.00,CLR,,0.00,WeatherDisplay:10.37,2013-09-19 11:49:00,
2013-09-19 06:54:00,70.8,54.3,30.00,East,92,2.3,2.3,56,0.00,CLR,,0.00,WeatherDisplay:10.37,2013-09-19 11:54:00,
2013-09-19 06:59:00,70.5,54.0,30.00,ESE,107,3.5,3.5,56,0.00,CLR,,0.00,WeatherDisplay:10.37,2013-09-19 11:59:00,
2013-09-19 07:04:00,70.4,54.0,30.00,East,88,1.2,0.0,56,0.00,CLR,,0.00,WeatherDisplay:10.37,2013-09-19 12:04:00,
2013-09-19 07:09:00,70.3,53.9,30.01,East,86,2.3,2.3,56,0.00,CLR,,0.00,WeatherDisplay:10.37,2013-09-19 12:09:00,
2013-09-19 07:14:00,70.1,53.7,30.00,ESE,111,0.0,0.1,56,0.00,CLR,,0.00,WeatherDisplay:10.37,2013-09-19 12:14:00,
2013-09-19 07:20:00,70.1,53.7,30.00,ESE,120,0.0,0.0,56,0.00,CLR,,0.00,WeatherDisplay:10.37,2013-09-19 12:20:00,
2013-09-19 07:25:00,70.0,53.6,30.00,ESE,109,4.0,4.0,56,0.00,CLR,,0.00,WeatherDisplay:10.37,2013-09-19 12:25:00,
2013-09-19 07:30:00,69.9,53.5,30.00,ESE,105,3.5,3.5,56,0.00,CLR,,0.00,WeatherDisplay:10.37,2013-09-19 12:30:00,
2013-09-19 07:35:00,69.8,53.4,30.00,ESE,110,1.2,0.0,56,0.00,CLR,,0.00,WeatherDisplay:10.37,2013-09-19 12:35:00,
2013-09-19 07:40:00,69.7,53.3,30.00,ESE,117,3.5,3.5,56,0.00,CLR,,0.00,WeatherDisplay:10.37,2013-09-19 12:40:00,
2013-09-19 07:45:00,69.7,53.3,30.00,ESE,115,4.6,4.6,56,0.00,CLR,,0.00,WeatherDisplay:10.37,2013-09-19 12:45:00,
2013-09-19 07:50:00,69.7,53.3,30.00,ESE,113,5.8,5.8,56,0.00,CLR,,0.00,WeatherDisplay:10.37,2013-09-19 12:50:00,
2013-09-19 07:55:00,69.7,53.8,30.00,East,100,6.9,6.9,57,0.00,CLR,,0.00,WeatherDisplay:10.37,2013-09-19 12:55:00,
2013-09-19 08:00:00,69.6,53.2,30.00,ESE,105,3.5,3.5,56,0.00,CLR,,0.00,WeatherDisplay:10.37,2013-09-19 13:00:00,
2013-09-19 08:05:00,69.5,53.1,30.00,SE,136,4.6,4.6,56,0.00,CLR,,0.00,WeatherDisplay:10.37,2013-09-19 13:05:00,
2013-09-19 08:10:00,69.5,53.1,30.00,ESE,116,3.5,3.5,56,0.00,CLR,,0.00,WeatherDisplay:10.37,2013-09-19 13:10:00,
2013-09-19 08:15:00,69.5,53.1,30.00,SSE,149,3.5,3.5,56,0.00,CLR,,0.00,WeatherDisplay:10.37,2013-09-19 13:15:00,
2013-09-19 08:20:00,69.4,53.0,30.00,SE,136,3.5,3.5,56,0.00,CLR,,0.00,WeatherDisplay:10.37,2013-09-19 13:20:00,
2013-09-19 08:25:00,69.4,53.0,30.00,SE,128,3.5,3.5,56,0.00,CLR,,0.00,WeatherDisplay:10.37,2013-09-19 13:25:00,
2013-09-19 08:30:00,69.4,53.0,30.00,SE,126,3.5,0.0,56,0.00,CLR,,0.00,WeatherDisplay:10.37,2013-09-19 13:30:00,
2013-09-19 08:35:00,69.4,53.0,30.00,ESE,119,0.0,0.0,56,0.00,CLR,,0.00,WeatherDisplay:10.37,2013-09-19 13:35:00,
2013-09-19 08:40:00,69.6,53.2,30.00,ESE,112,0.0,0.1,56,0.00,CLR,,0.00,WeatherDisplay:10.37,2013-09-19 13:40:00,
2013-09-19 08:45:00,69.7,53.8,30.00,SSE,152,1.2,1.2,57,0.00,CLR,,0.00,WeatherDisplay:10.37,2013-09-19 13:45:00,
2013-09-19 08:50:00,69.8,53.9,29.99,ESE,115,0.0,0.0,57,0.00,CLR,,0.00,WeatherDisplay:10.37,2013-09-19 13:50:00,
2013-09-19 08:55:00,69.9,54.0,30.00,East,99,4.6,4.6,57,0.00,CLR,,0.00,WeatherDisplay:10.37,2013-09-19 13:55:00,
2013-09-19 09:00:00,69.9,53.5,30.00,SE,126,0.0,0.0,56,0.00,CLR,,0.00,WeatherDisplay:10.37,2013-09-19 14:00:00,
2013-09-19 09:05:00,70.1,53.7,30.00,ESE,109,3.5,3.5,56,0.00,CLR,,0.00,WeatherDisplay:10.37,2013-09-19 14:05:00,
2013-09-19 09:10:00,70.3,53.9,30.00,SSE,157,5.8,5.8,56,0.00,CLR,,0.00,WeatherDisplay:10.37,2013-09-19 14:10:00,
2013-09-19 09:15:00,70.5,54.0,30.00,SSE,161,5.8,5.8,56,0.00,CLR,,0.00,WeatherDisplay:10.37,2013-09-19 14:15:00,
2013-09-19 09:20:00,70.6,54.1,30.00,SSE,159,3.5,3.5,56,0.00,CLR,,0.00,WeatherDisplay:10.37,2013-09-19 14:20:00,
2013-09-19 09:25:00,70.8,54.3,30.00,SSE,155,5.8,5.8,56,0.00,CLR,,0.00,WeatherDisplay:10.37,2013-09-19 14:25:00,
2013-09-19 09:30:00,71.2,54.7,30.00,SSE,161,1.0,0.0,56,0.00,CLR,,0.00,WeatherDisplay:10.37,2013-09-19 14:30:00,
2013-09-19 09:35:00,71.5,55.0,30.00,SSE,159,5.8,5.8,56,0.00,CLR,,0.00,WeatherDisplay:10.37,2013-09-19 14:35:00,
2013-09-19 09:40:00,71.7,55.2,30.00,SE,137,5.8,5.8,56,0.00,CLR,,0.00,WeatherDisplay:10.37,2013-09-19 14:40:00,
2013-09-19 09:45:00,71.9,55.3,30.00,SSE,161,10.4,10.4,56,0.00,CLR,,0.00,WeatherDisplay:10.37,2013-09-19 14:45:00,
2013-09-19 09:50:00,71.9,55.3,30.00,South,188,5.8,5.8,56,0.00,CLR,,0.00,WeatherDisplay:10.37,2013-09-19 14:50:00,
2013-09-19 09:55:00,71.9,55.3,30.00,SSE,161,6.9,6.9,56,0.00,CLR,,0.00,WeatherDisplay:10.37,2013-09-19 14:55:00,
2013-09-19 10:00:00,72.3,55.7,30.00,South,180,6.9,6.9,56,0.00,CLR,,0.00,WeatherDisplay:10.37,2013-09-19 15:00:00,
2013-09-19 10:05:00,72.4,55.8,30.00,SSE,164,6.9,6.9,56,0.00,CLR,,0.00,WeatherDisplay:10.37,2013-09-19 15:05:00,
2013-09-19 10:10:00,72.9,55.8,30.00,SSE,164,3.5,3.5,55,0.00,CLR,,0.00,WeatherDisplay:10.37,2013-09-19 15:10:00,
2013-09-19 10:15:00,73.3,56.2,30.00,ESE,117,11.5,11.5,55,0.00,CLR,,0.00,WeatherDisplay:10.37,2013-09-19 15:15:00,
2013-09-19 10:20:00,73.9,56.7,30.00,SSE,163,9.0,9.0,55,0.00,CLR,,0.00,WeatherDisplay:10.37,2013-09-19 15:20:00,
2013-09-19 10:25:00,74.6,57.4,30.00,South,176,12.7,12.7,55,0.00,CLR,,0.00,WeatherDisplay:10.37,2013-09-19 15:25:00,
2013-09-19 10:30:00,75.2,57.9,30.00,SSE,153,6.9,6.9,55,0.00,CLR,,0.00,WeatherDisplay:10.37,2013-09-19 15:30:00,
2013-09-19 10:35:00,75.9,58.6,30.00,SSW,213,11.5,11.5,55,0.00,CLR,,0.00,WeatherDisplay:10.37,2013-09-19 15:35:00,
2013-09-19 10:40:00,76.4,60.0,30.00,South,169,5.8,5.8,57,0.00,CLR,,0.00,WeatherDisplay:10.37,2013-09-19 15:40:00,
2013-09-19 10:45:00,76.2,61.3,29.99,South,173,11.5,11.5,60,0.00,CLR,,0.00,WeatherDisplay:10.37,2013-09-19 15:45:00,
2013-09-19 10:50:00,76.2,62.2,29.99,South,180,15.0,15.0,62,0.00,CLR,,0.00,WeatherDisplay:10.37,2013-09-19 15:50:00,
2013-09-19 10:55:00,76.5,63.0,29.99,SSE,150,10.4,10.4,63,0.00,CLR,,0.00,WeatherDisplay:10.37,2013-09-19 15:55:00,
2013-09-19 11:00:00,76.3,63.7,29.99,SSW,192,11.5,11.5,65,0.00,CLR,,0.00,WeatherDisplay:10.37,2013-09-19 16:00:00,
2013-09-19 11:05:00,76.2,63.6,29.99,SW,215,15.0,15.0,65,0.00,CLR,,0.00,WeatherDisplay:10.37,2013-09-19 16:05:00,
2013-09-19 11:10:00,76.3,64.1,29.99,SSW,199,11.5,11.5,66,0.00,CLR,,0.00,WeatherDisplay:10.37,2013-09-19 16:10:00,
2013-09-19 11:15:00,76.4,64.2,29.99,South,186,6.0,6.0,66,0.00,CLR,,0.00,WeatherDisplay:10.37,2013-09-19 16:15:00,
2013-09-19 11:20:00,76.6,64.4,29.99,SSE,167,10.4,10.4,66,0.00,CLR,,0.00,WeatherDisplay:10.37,2013-09-19 16:20:00,
2013-09-19 11:25:00,77.0,64.8,29.99,South,183,11.5,11.5,66,0.00,CLR,,0.00,WeatherDisplay:10.37,2013-09-19 16:25:00,
2013-09-19 11:30:00,77.1,64.9,29.98,SSW,203,13.8,13.8,66,0.00,CLR,,0.00,WeatherDisplay:10.37,2013-09-19 16:30:00,
2013-09-19 11:35:00,77.5,65.2,29.98,SSE,153,10.4,10.4,66,0.00,CLR,,0.00,WeatherDisplay:10.37,2013-09-19 16:35:00,
2013-09-19 11:40:00,77.9,65.6,29.98,SSE,147,12.7,12.7,66,0.00,CLR,,0.00,WeatherDisplay:10.37,2013-09-19 16:40:00,
2013-09-19 11:45:00,78.0,66.2,29.98,South,170,11.5,11.5,67,0.00,CLR,,0.00,WeatherDisplay:10.37,2013-09-19 16:45:00,
2013-09-19 11:50:00,78.2,66.3,29.98,SSE,159,13.8,13.8,67,0.00,CLR,,0.00,WeatherDisplay:10.37,2013-09-19 16:50:00,
2013-09-19 11:55:00,78.7,66.8,29.97,SSW,210,12.7,12.7,67,0.00,CLR,,0.00,WeatherDisplay:10.37,2013-09-19 16:55:00,
2013-09-19 12:00:00,79.2,67.7,29.97,SSE,165,6.9,6.9,68,0.00,CLR,,0.00,WeatherDisplay:10.37,2013-09-19 17:00:00,
2013-09-19 12:05:00,79.3,67.8,29.97,SSW,207,9.2,9.2,68,0.00,CLR,,0.00,WeatherDisplay:10.37,2013-09-19 17:05:00,
2013-09-19 12:10:00,79.4,67.9,29.97,South,180,12.7,12.7,68,0.00,CLR,,0.00,WeatherDisplay:10.37,2013-09-19 17:10:00,
2013-09-19 12:15:00,79.3,67.8,29.97,SSW,193,16.1,16.1,68,0.00,CLR,,0.00,WeatherDisplay:10.37,2013-09-19 17:15:00,
2013-09-19 12:20:00,79.2,67.7,29.96,SSE,167,11.5,11.5,68,0.00,CLR,,0.00,WeatherDisplay:10.37,2013-09-19 17:20:00,
2013-09-19 12:25:00,79.5,68.0,29.96,SW,232,10.4,10.4,68,0.00,CLR,,0.00,WeatherDisplay:10.37,2013-09-19 17:25:00,
2013-09-19 12:30:00,80.0,68.9,29.96,South,189,12.7,12.7,69,0.00,CLR,,0.00,WeatherDisplay:10.37,2013-09-19 17:30:00,
2013-09-19 12:35:00,80.4,69.3,29.96,SSW,206,12.0,12.0,69,0.00,CLR,,0.00,WeatherDisplay:10.37,2013-09-19 17:35:00,
2013-09-19 12:40:00,80.6,69.5,29.96,SE,144,11.5,11.5,69,0.00,CLR,,0.00,WeatherDisplay:10.37,2013-09-19 17:40:00,
2013-09-19 12:45:00,80.9,69.8,29.95,South,169,6.9,6.9,69,0.00,CLR,,0.00,WeatherDisplay:10.37,2013-09-19 17:45:00,
2013-09-19 12:50:00,80.8,69.7,29.95,South,171,15.0,15.0,69,0.00,CLR,,0.00,WeatherDisplay:10.37,2013-09-19 17:50:00,
2013-09-19 12:55:00,81.0,69.9,29.95,South,191,11.5,11.5,69,0.00,CLR,,0.00,WeatherDisplay:10.37,2013-09-19 17:55:00,
2013-09-19 13:00:00,81.4,70.2,29.95,SSW,211,11.5,11.5,69,0.00,CLR,,0.00,WeatherDisplay:10.37,2013-09-19 18:00:00,
2013-09-19 13:05:00,81.5,70.3,29.95,SSE,150,9.2,9.2,69,0.00,CLR,,0.00,WeatherDisplay:10.37,2013-09-19 18:05:00,
2013-09-19 13:10:00,81.5,70.3,29.95,SSE,167,16.1,16.1,69,0.00,CLR,,0.00,WeatherDisplay:10.37,2013-09-19 18:10:00,
2013-09-19 13:15:00,81.8,70.6,29.94,South,178,5.8,5.8,69,0.00,CLR,,0.00,WeatherDisplay:10.37,2013-09-19 18:15:00,
2013-09-19 13:20:00,82.7,71.5,29.94,South,172,11.5,11.5,69,0.00,CLR,,0.00,WeatherDisplay:10.37,2013-09-19 18:20:00,
2013-09-19 13:25:00,83.1,71.9,29.94,SW,225,9.2,9.2,69,0.00,CLR,,0.00,WeatherDisplay:10.37,2013-09-19 18:25:00,
2013-09-19 13:30:00,83.6,72.3,29.94,SSE,166,12.0,12.0,69,0.00,CLR,,0.00,WeatherDisplay:10.37,2013-09-19 18:30:00,
2013-09-19 13:35:00,83.7,72.4,29.94,South,175,12.7,12.7,69,0.00,CLR,,0.00,WeatherDisplay:10.37,2013-09-19 18:35:00,
2013-09-19 13:40:00,83.7,72.4,29.93,South,190,9.2,9.2,69,0.00,CLR,,0.00,WeatherDisplay:10.37,2013-09-19 18:40:00,
2013-09-19 13:45:00,84.1,72.8,29.93,South,175,16.1,16.1,69,0.00,CLR,,0.00,WeatherDisplay:10.37,2013-09-19 18:45:00,
2013-09-19 13:50:00,84.2,72.9,29.93,SSW,203,11.5,11.5,69,0.00,CLR,,0.00,WeatherDisplay:10.37,2013-09-19 18:50:00,
2013-09-19 13:55:00,84.6,73.3,29.93,South,172,11.5,11.5,69,0.00,CLR,,0.00,WeatherDisplay:10.37,2013-09-19 18:55:00,
2013-09-19 14:00:00,84.8,73.5,29.93,South,188,15.0,15.0,69,0.00,CLR,,0.00,WeatherDisplay:10.37,2013-09-19 19:00:00,
2013-09-19 14:06:00,85.0,73.7,29.93,South,170,9.2,9.2,69,0.00,CLR,,0.00,WeatherDisplay:10.37,2013-09-19 19:06:00,
2013-09-19 14:11:00,85.4,73.6,29.92,SE,128,11.5,11.5,68,0.00,CLR,,0.00,WeatherDisplay:10.37,2013-09-19 19:11:00,
2013-09-19 14:16:00,85.2,73.4,29.92,South,177,11.5,11.5,68,0.00,CLR,,0.00,WeatherDisplay:10.37,2013-09-19 19:16:00,
2013-09-19 14:21:00,85.4,73.2,29.92,South,178,15.0,15.0,67,0.00,CLR,,0.00,WeatherDisplay:10.37,2013-09-19 19:21:00,
2013-09-19 14:26:00,86.0,73.3,29.92,South,175,13.8,13.8,66,0.00,CLR,,0.00,WeatherDisplay:10.37,2013-09-19 19:26:00,
2013-09-19 14:31:00,86.2,73.0,29.92,SW,230,11.5,11.5,65,0.00,CLR,,0.00,WeatherDisplay:10.37,2013-09-19 19:31:00,
2013-09-19 14:36:00,86.9,73.3,29.92,SSW,207,11.5,11.5,64,0.00,CLR,,0.00,WeatherDisplay:10.37,2013-09-19 19:36:00,
2013-09-19 14:41:00,86.7,73.5,29.92,ESE,107,9.2,9.2,65,0.00,CLR,,0.00,WeatherDisplay:10.37,2013-09-19 19:41:00,
2013-09-19 14:46:00,87.1,73.4,29.91,SW,217,19.6,19.6,64,0.00,CLR,,0.00,WeatherDisplay:10.37,2013-09-19 19:46:00,
2013-09-19 14:51:00,87.5,72.9,29.91,SW,221,16.1,16.1,62,0.00,CLR,,0.00,WeatherDisplay:10.37,2013-09-19 19:51:00,
2013-09-19 14:56:00,87.6,73.0,29.91,SSE,161,15.0,15.0,62,0.00,CLR,,0.00,WeatherDisplay:10.37,2013-09-19 19:56:00,
2013-09-19 15:01:00,87.8,73.2,29.91,SSW,209,8.1,8.1,62,0.00,CLR,,0.00,WeatherDisplay:10.37,2013-09-19 20:01:00,
2013-09-19 15:06:00,87.4,72.8,29.90,South,182,11.5,11.5,62,0.00,CLR,,0.00,WeatherDisplay:10.37,2013-09-19 20:06:00,
2013-09-19 15:11:00,87.3,73.2,29.90,SSW,194,17.3,17.3,63,0.00,CLR,,0.00,WeatherDisplay:10.37,2013-09-19 20:11:00,
2013-09-19 15:16:00,87.3,73.2,29.90,South,187,10.4,10.4,63,0.00,CLR,,0.00,WeatherDisplay:10.37,2013-09-19 20:16:00,
2013-09-19 15:21:00,87.3,72.7,29.90,South,179,11.5,11.5,62,0.00,CLR,,0.00,WeatherDisplay:10.37,2013-09-19 20:21:00,
2013-09-19 15:26:00,87.1,72.5,29.90,SE,138,17.3,17.3,62,0.00,CLR,,0.00,WeatherDisplay:10.37,2013-09-19 20:26:00,
2013-09-19 15:31:00,87.2,71.6,29.90,SSW,192,13.8,13.8,60,0.00,CLR,,0.00,WeatherDisplay:10.37,2013-09-19 20:31:00,
2013-09-19 15:36:00,87.4,71.8,29.89,SW,215,12.7,12.7,60,0.00,CLR,,0.00,WeatherDisplay:10.37,2013-09-19 20:36:00,
2013-09-19 15:41:00,87.5,71.4,29.89,SW,217,15.0,15.0,59,0.00,CLR,,0.00,WeatherDisplay:10.37,2013-09-19 20:41:00,
2013-09-19 15:46:00,87.0,70.9,29.89,South,179,13.8,13.8,59,0.00,CLR,,0.00,WeatherDisplay:10.37,2013-09-19 20:46:00,
2013-09-19 15:51:00,86.7,71.2,29.89,SW,223,11.5,11.5,60,0.00,CLR,,0.00,WeatherDisplay:10.37,2013-09-19 20:51:00,
2013-09-19 15:56:00,87.1,72.0,29.89,South,178,12.7,12.7,61,0.00,CLR,,0.00,WeatherDisplay:10.37,2013-09-19 20:56:00,
2013-09-19 16:01:00,86.7,71.6,29.88,South,180,9.2,9.2,61,0.00,CLR,,0.00,WeatherDisplay:10.37,2013-09-19 21:01:00,
2013-09-19 16:06:00,85.9,71.8,29.88,South,178,11.5,11.5,63,0.00,CLR,,0.00,WeatherDisplay:10.37,2013-09-19 21:06:00,
2013-09-19 16:11:00,85.6,72.0,29.88,SSW,213,11.5,11.5,64,0.00,CLR,,0.00,WeatherDisplay:10.37,2013-09-19 21:11:00,
2013-09-19 16:16:00,86.3,72.7,29.88,South,183,8.0,8.0,64,0.00,CLR,,0.00,WeatherDisplay:10.37,2013-09-19 21:16:00,
2013-09-19 16:21:00,86.5,72.9,29.87,SSE,150,11.0,11.0,64,0.00,CLR,,0.00,WeatherDisplay:10.37,2013-09-19 21:21:00,
2013-09-19 16:26:00,86.4,73.2,29.87,SSW,204,7.0,7.0,65,0.00,CLR,,0.00,WeatherDisplay:10.37,2013-09-19 21:26:00,
2013-09-19 16:31:00,86.6,73.4,29.87,SSE,163,11.5,11.5,65,0.00,CLR,,0.00,WeatherDisplay:10.37,2013-09-19 21:31:00,
2013-09-19 16:36:00,86.8,73.2,29.87,South,184,6.9,6.9,64,0.00,CLR,,0.00,WeatherDisplay:10.37,2013-09-19 21:36:00,
2013-09-19 16:41:00,87.3,72.7,29.87,SW,222,10.4,10.4,62,0.00,CLR,,0.00,WeatherDisplay:10.37,2013-09-19 21:41:00,
2013-09-19 16:46:00,87.9,72.8,29.87,SSW,207,5.8,5.8,61,0.00,CLR,,0.00,WeatherDisplay:10.37,2013-09-19 21:46:00,
2013-09-19 16:51:00,87.9,72.3,29.87,SW,227,11.5,11.5,60,0.00,CLR,,0.00,WeatherDisplay:10.37,2013-09-19 21:51:00,
2013-09-19 16:56:00,87.8,72.2,29.87,SSW,195,11.5,11.5,60,0.00,CLR,,0.00,WeatherDisplay:10.37,2013-09-19 21:56:00,
2013-09-19 17:01:00,87.6,72.0,29.87,SSW,199,11.5,11.5,60,0.00,CLR,,0.00,WeatherDisplay:10.37,2013-09-19 22:01:00,
2013-09-19 17:06:00,87.4,72.3,29.87,South,178,16.0,16.0,61,0.00,CLR,,0.00,WeatherDisplay:10.37,2013-09-19 22:06:00,
2013-09-19 17:11:00,87.3,72.2,29.86,SW,232,12.0,12.0,61,0.00,CLR,,0.00,WeatherDisplay:10.37,2013-09-19 22:11:00,
2013-09-19 17:16:00,87.0,72.4,29.86,SSW,209,11.5,11.5,62,0.00,CLR,,0.00,WeatherDisplay:10.37,2013-09-19 22:16:00,
2013-09-19 17:21:00,86.7,73.1,29.86,South,171,17.3,17.3,64,0.00,CLR,,0.00,WeatherDisplay:10.37,2013-09-19 22:21:00,
2013-09-19 17:26:00,86.6,73.0,29.86,SSE,166,11.5,11.5,64,0.00,CLR,,0.00,WeatherDisplay:10.37,2013-09-19 22:26:00,
2013-09-19 17:31:00,86.5,72.9,29.86,South,190,15.0,15.0,64,0.00,CLR,,0.00,WeatherDisplay:10.37,2013-09-19 22:31:00,
2013-09-19 17:36:00,86.0,72.9,29.87,SSE,159,3.5,3.5,65,0.00,CLR,,0.00,WeatherDisplay:10.37,2013-09-19 22:36:00,
2013-09-19 17:41:00,85.7,73.0,29.86,SW,221,6.9,6.9,66,0.00,CLR,,0.00,WeatherDisplay:10.37,2013-09-19 22:41:00,
2013-09-19 17:46:00,85.4,73.2,29.86,SSE,159,4.0,5.0,67,0.00,CLR,,0.00,WeatherDisplay:10.37,2013-09-19 22:46:00,
2013-09-19 17:51:00,85.0,73.3,29.86,SSW,202,12.0,12.0,68,0.00,CLR,,0.00,WeatherDisplay:10.37,2013-09-19 22:51:00,
2013-09-19 17:56:00,84.7,73.0,29.85,SSE,157,10.4,0.0,68,0.00,CLR,,0.00,WeatherDisplay:10.37,2013-09-19 22:56:00,
2013-09-19 18:01:00,84.4,72.7,29.85,South,175,3.5,3.5,68,0.00,CLR,,0.00,WeatherDisplay:10.37,2013-09-19 23:01:00,
2013-09-19 18:06:00,84.2,72.9,29.85,SSE,161,4.6,0.0,69,0.00,CLR,,0.00,WeatherDisplay:10.37,2013-09-19 23:06:00,
2013-09-19 18:11:00,84.0,72.7,29.85,SSE,161,3.0,3.5,69,0.00,CLR,,0.00,WeatherDisplay:10.37,2013-09-19 23:11:00,
2013-09-19 18:16:00,83.7,72.4,29.85,SSE,154,11.5,11.5,69,0.00,CLR,,0.00,WeatherDisplay:10.37,2013-09-19 23:16:00,
2013-09-19 18:21:00,83.5,72.3,29.85,South,183,6.9,6.9,69,0.00,CLR,,0.00,WeatherDisplay:10.37,2013-09-19 23:21:00,
2013-09-19 18:26:00,83.2,72.4,29.85,South,174,2.3,0.0,70,0.00,CLR,,0.00,WeatherDisplay:10.37,2013-09-19 23:26:00,
2013-09-19 18:31:00,82.8,72.0,29.85,SSE,164,3.5,0.0,70,0.00,CLR,,0.00,WeatherDisplay:10.37,2013-09-19 23:31:00,
2013-09-19 18:36:00,82.5,72.1,29.85,South,185,3.5,4.1,71,0.00,CLR,,0.00,WeatherDisplay:10.37,2013-09-19 23:36:00,
2013-09-19 18:41:00,82.1,71.8,29.85,South,171,9.2,9.2,71,0.00,CLR,,0.00,WeatherDisplay:10.37,2013-09-19 23:41:00,
2013-09-19 18:46:00,81.9,71.6,29.85,SSE,155,4.0,4.0,71,0.00,CLR,,0.00,WeatherDisplay:10.37,2013-09-19 23:46:00,
2013-09-19 18:51:00,81.6,71.3,29.85,ESE,121,9.2,9.2,71,0.00,CLR,,0.00,WeatherDisplay:10.37,2013-09-19 23:51:00,
2013-09-19 18:56:00,81.3,71.0,29.85,South,179,4.0,4.0,71,0.00,CLR,,0.00,WeatherDisplay:10.37,2013-09-19 23:56:00,
2013-09-19 19:01:00,81.1,70.8,29.86,South,170,5.0,5.0,71,0.00,CLR,,0.00,WeatherDisplay:10.37,2013-09-20 00:01:00,
2013-09-19 19:06:00,80.9,70.6,29.86,SSE,160,6.9,6.9,71,0.00,CLR,,0.00,WeatherDisplay:10.37,2013-09-20 00:06:00,
2013-09-19 19:11:00,80.8,70.5,29.85,East,99,11.5,11.5,71,0.00,CLR,,0.00,WeatherDisplay:10.37,2013-09-20 00:11:00,
2013-09-19 19:16:00,80.6,70.3,29.86,SSE,153,6.9,6.9,71,0.00,CLR,,0.00,WeatherDisplay:10.37,2013-09-20 00:16:00,
2013-09-19 19:21:00,80.5,70.2,29.86,South,180,5.8,5.8,71,0.00,CLR,,0.00,WeatherDisplay:10.37,2013-09-20 00:21:00,
2013-09-19 19:26:00,80.3,70.0,29.86,ESE,118,11.5,11.5,71,0.00,CLR,,0.00,WeatherDisplay:10.37,2013-09-20 00:26:00,
2013-09-19 19:31:00,80.2,69.9,29.87,SE,144,5.0,5.0,71,0.00,CLR,,0.00,WeatherDisplay:10.37,2013-09-20 00:31:00,
2013-09-19 19:36:00,80.0,69.7,29.87,South,191,5.8,5.8,71,0.00,CLR,,0.00,WeatherDisplay:10.37,2013-09-20 00:36:00,
2013-09-19 19:41:00,79.8,69.6,29.88,South,176,1.2,1.2,71,0.00,CLR,,0.00,WeatherDisplay:10.37,2013-09-20 00:41:00,
2013-09-19 19:46:00,79.6,69.4,29.88,South,182,0.0,0.0,71,0.00,CLR,,0.00,WeatherDisplay:10.37,2013-09-20 00:46:00,
2013-09-19 19:51:00,79.4,68.8,29.88,South,178,5.0,5.0,70,0.00,CLR,,0.00,WeatherDisplay:10.37,2013-09-20 00:51:00,
2013-09-19 19:56:00,79.2,68.6,29.88,South,183,10.0,10.0,70,0.00,CLR,,0.00,WeatherDisplay:10.37,2013-09-20 00:56:00,
2013-09-19 20:01:00,79.1,68.1,29.88,South,170,9.2,9.2,69,0.00,CLR,,0.00,WeatherDisplay:10.37,2013-09-20 01:01:00,
2013-09-19 20:06:00,79.1,68.1,29.88,SSE,157,6.9,6.9,69,0.00,CLR,,0.00,WeatherDisplay:10.37,2013-09-20 01:06:00,
2013-09-19 20:11:00,79.0,68.0,29.88,SSE,157,4.6,4.6,69,0.00,CLR,,0.00,WeatherDisplay:10.37,2013-09-20 01:11:00,
2013-09-19 20:16:00,78.8,67.8,29.88,South,191,6.9,6.9,69,0.00,CLR,,0.00,WeatherDisplay:10.37,2013-09-20 01:16:00,
2013-09-19 20:21:00,78.8,67.8,29.88,SSE,149,11.5,11.5,69,0.00,CLR,,0.00,WeatherDisplay:10.37,2013-09-20 01:21:00,
2013-09-19 20:26:00,78.7,67.7,29.88,SSW,207,4.0,4.0,69,0.00,CLR,,0.00,WeatherDisplay:10.37,2013-09-20 01:26:00,
2013-09-19 20:31:00,78.7,67.2,29.88,SSE,163,5.8,5.8,68,0.00,CLR,,0.00,WeatherDisplay:10.37,2013-09-20 01:31:00,
2013-09-19 20:36:00,78.5,67.1,29.89,SSE,157,3.0,3.0,68,0.00,CLR,,0.00,WeatherDisplay:10.37,2013-09-20 01:36:00,
2013-09-19 20:41:00,78.3,66.9,29.89,SSE,154,5.8,5.8,68,0.00,CLR,,0.00,WeatherDisplay:10.37,2013-09-20 01:41:00,
2013-09-19 20:46:00,78.1,66.7,29.89,South,180,1.2,0.0,68,0.00,CLR,,0.00,WeatherDisplay:10.37,2013-09-20 01:46:00,
2013-09-19 20:51:00,77.9,66.1,29.89,SSE,159,3.5,3.5,67,0.00,CLR,,0.00,WeatherDisplay:10.37,2013-09-20 01:51:00,
2013-09-19 20:56:00,77.7,65.9,29.89,SSW,198,4.6,4.6,67,0.00,CLR,,0.00,WeatherDisplay:10.37,2013-09-20 01:56:00,
2013-09-19 21:01:00,77.6,65.8,29.89,SSW,194,6.9,6.9,67,0.00,CLR,,0.00,WeatherDisplay:10.37,2013-09-20 02:01:00,
2013-09-19 21:06:00,77.5,65.7,29.88,SSE,168,5.8,5.8,67,0.00,CLR,,0.00,WeatherDisplay:10.37,2013-09-20 02:06:00,
2013-09-19 21:11:00,77.5,65.2,29.88,South,169,5.0,5.0,66,0.00,CLR,,0.00,WeatherDisplay:10.37,2013-09-20 02:11:00,
2013-09-19 21:16:00,77.4,65.1,29.88,SSW,205,3.5,3.5,66,0.00,CLR,,0.00,WeatherDisplay:10.37,2013-09-20 02:16:00,
2013-09-19 21:21:00,77.3,65.1,29.88,South,186,12.7,12.7,66,0.00,CLR,,0.00,WeatherDisplay:10.37,2013-09-20 02:21:00,
2013-09-19 21:26:00,77.3,65.1,29.89,SSE,161,9.2,9.2,66,0.00,CLR,,0.00,WeatherDisplay:10.37,2013-09-20 02:26:00,
2013-09-19 21:31:00,77.2,65.0,29.88,SSE,161,8.1,8.1,66,0.00,CLR,,0.00,WeatherDisplay:10.37,2013-09-20 02:31:00,
2013-09-19 21:36:00,77.2,65.0,29.89,SSE,151,5.8,5.8,66,0.00,CLR,,0.00,WeatherDisplay:10.37,2013-09-20 02:36:00,
2013-09-19 21:41:00,77.1,64.9,29.88,South,169,11.5,11.5,66,0.00,CLR,,0.00,WeatherDisplay:10.37,2013-09-20 02:41:00,
2013-09-19 21:46:00,77.1,64.9,29.88,South,188,6.0,6.0,66,0.00,CLR,,0.00,WeatherDisplay:10.37,2013-09-20 02:46:00,
2013-09-19 21:51:00,77.2,65.0,29.88,South,191,13.8,13.8,66,0.00,CLR,,0.00,WeatherDisplay:10.37,2013-09-20 02:51:00,
2013-09-19 21:56:00,77.3,65.1,29.88,SSE,161,6.9,6.9,66,0.00,CLR,,0.00,WeatherDisplay:10.37,2013-09-20 02:56:00,
2013-09-19 22:01:00,77.4,65.1,29.88,SSW,201,5.8,5.8,66,0.00,CLR,,0.00,WeatherDisplay:10.37,2013-09-20 03:01:00,
2013-09-19 22:07:00,77.4,65.1,29.88,South,183,12.7,12.7,66,0.00,CLR,,0.00,WeatherDisplay:10.37,2013-09-20 03:07:00,
2013-09-19 22:12:00,77.5,65.2,29.88,SE,139,8.1,8.1,66,0.00,CLR,,0.00,WeatherDisplay:10.37,2013-09-20 03:12:00,
2013-09-19 22:17:00,77.5,65.7,29.88,SSE,159,9.2,9.2,67,0.00,CLR,,0.00,WeatherDisplay:10.37,2013-09-20 03:17:00,
2013-09-19 22:22:00,77.5,65.7,29.88,SE,137,10.4,10.4,67,0.00,CLR,,0.00,WeatherDisplay:10.37,2013-09-20 03:22:00,
2013-09-19 22:27:00,77.5,65.7,29.88,SSE,167,11.5,11.5,67,0.00,CLR,,0.00,WeatherDisplay:10.37,2013-09-20 03:27:00,
2013-09-19 22:32:00,77.6,65.8,29.88,SSW,212,6.9,6.9,67,0.00,CLR,,0.00,WeatherDisplay:10.37,2013-09-20 03:32:00,
2013-09-19 22:37:00,77.7,65.9,29.88,SE,144,6.9,6.9,67,0.00,CLR,,0.00,WeatherDisplay:10.37,2013-09-20 03:37:00,
2013-09-19 22:42:00,77.7,65.9,29.89,South,179,3.5,3.5,67,0.00,CLR,,0.00,WeatherDisplay:10.37,2013-09-20 03:42:00,
2013-09-19 22:47:00,77.6,65.8,29.89,South,181,6.9,6.9,67,0.00,CLR,,0.00,WeatherDisplay:10.37,2013-09-20 03:47:00,
2013-09-19 22:52:00,77.7,65.9,29.89,SW,215,7.0,7.0,67,0.00,CLR,,0.00,WeatherDisplay:10.37,2013-09-20 03:52:00,
2013-09-19 22:57:00,77.8,66.0,29.89,South,176,6.9,6.9,67,0.00,CLR,,0.00,WeatherDisplay:10.37,2013-09-20 03:57:00,
2013-09-19 23:01:00,77.8,66.4,29.89,South,191,11.5,11.5,68,0.00,CLR,,0.00,WeatherDisplay:10.37,2013-09-20 04:01:00,
2013-09-19 23:02:00,77.8,66.4,29.89,SW,233,11.0,11.0,68,0.00,CLR,,0.00,WeatherDisplay:10.37,2013-09-20 04:02:00,
2013-09-19 23:03:00,77.8,66.4,29.89,South,184,4.6,4.6,68,0.00,CLR,,0.00,WeatherDisplay:10.37,2013-09-20 04:03:00,
2013-09-19 23:08:00,77.7,66.3,29.89,South,173,11.5,11.5,68,0.00,CLR,,0.00,WeatherDisplay:10.37,2013-09-20 04:08:00,
2013-09-19 23:13:00,77.7,66.3,29.89,South,173,10.4,10.4,68,0.00,CLR,,0.00,WeatherDisplay:10.37,2013-09-20 04:13:00,
2013-09-19 23:18:00,77.7,66.3,29.89,SSW,211,11.5,11.5,68,0.00,CLR,,0.00,WeatherDisplay:10.37,2013-09-20 04:18:00,
2013-09-19 23:23:00,77.7,66.3,29.89,South,188,11.5,11.5,68,0.00,CLR,,0.00,WeatherDisplay:10.37,2013-09-20 04:23:00,
2013-09-19 23:28:00,77.7,66.3,29.90,South,184,12.7,12.7,68,0.00,CLR,,0.00,WeatherDisplay:10.37,2013-09-20 04:28:00,
2013-09-19 23:33:00,77.8,66.4,29.89,SE,144,13.8,13.8,68,0.00,CLR,,0.00,WeatherDisplay:10.37,2013-09-20 04:33:00,
2013-09-19 23:38:00,77.8,66.4,29.89,SSW,209,13.8,13.8,68,0.00,CLR,,0.00,WeatherDisplay:10.37,2013-09-20 04:38:00,
2013-09-19 23:43:00,77.8,66.4,29.89,South,185,15.0,15.0,68,0.00,CLR,,0.00,WeatherDisplay:10.37,2013-09-20 04:43:00,
2013-09-19 23:48:00,77.8,66.4,29.89,SSE,159,13.8,13.8,68,0.00,CLR,,0.00,WeatherDisplay:10.37,2013-09-20 04:48:00,
2013-09-19 23:53:00,77.8,66.4,29.89,SW,214,13.8,13.8,68,0.00,CLR,,0.00,WeatherDisplay:10.37,2013-09-20 04:53:00,
2013-09-19 23:58:00,77.8,66.4,29.89,SW,228,13.8,13.8,68,0.00,CLR,,0.00,WeatherDisplay:10.37,2013-09-20 04:58:00,